XINGCHI-1 02B

Satellite information

Favourite Embed

Satellite Type and Status

PAYLOADIN ORBIT

Key statistics

Satellite XINGCHI-1 02B at a glance.

Uptime

520

Days in orbit

Revolutions

≈ 14.8

Per day

Orbit

SSO

Sun Synchronous Orbit

Inclination

98.0

Latest

Satellite identification and parameters

Extended collection of information and parameters for XINGCHI-1 02B.

Object identification

Identified? True

Debris? False

Object name: XINGCHI-1 02B

International designator: 2023-187C

Object number (NORAD): 58498

Object ID (CCSDS): 58498

Country: PEOPLES REPUBLIC OF CHINA (PRC)

Current information (Y/N): Y

RCS size: LARGE

Orbital parameters

Period: 97.058 minutes

Inclination: 97.9556 deg

SMA: 6995.988 km

Apoapsis: 625.895 km

Periapsis: 609.811 km

RAAN: 207.3574 deg

Eccentricy: 0.0011495

Argument of periapsis: 35.1128 deg

Mean anomaly: 325.0842 deg

Mean motion: 14.83642197 rev/day

Mean motion (dot): 0.00003034 rev/day2

B* drag term: 0.00037378 1/REarth

Two-line elements (TLE)

Creation date: May 7, 2025, 3:14 a.m.

Reference frame: TEME

Reference center: EARTH

Epoch: May 6, 2025, 10:06 p.m. UTC

TLE line 0: 0 XINGCHI-1 02B

TLE line 1: 1 58498U 23187C 25126.92084237 .00003034 00000-0 37378-3 0 9997

TLE line 2: 2 58498 97.9556 207.3574 0011495 35.1128 325.0842 14.83642197 76894

Live tracking on map

Real-time ground track for satellite XINGCHI-1 02B.

In-orbit conjunctions

There are no conjunctions computed for XINGCHI-1 02B, at the moment. Check back to stay up to date, as we update our databases every day.

Go to all conjunctions

Associated space launch

MisrSat-2 is an Earth observation satellite for the Egyptian Space Agency built by China, with participation from Egyptian engineers and scientists offering opportunity to acquire on-the-project experience in satellite design and integration from China, using facilities available in Egypt. Also riding on this launch is Starpool-02A/B, multi-purpose communication, remote sensing and navigation enhancement satellites from Beijing based ELLIPSPACE.

XINGCHI-1 02B was lifted into orbit during the mission ‘Long March 2C | MisrSat-2’, on board a Long March 2 space rocket.

The launch took place on Dec. 4, 2023, 4:10 a.m. from Launch Area 4 (SLS-2 / 603).

For more information about the launch, click the button.

Launch to space Long March 2C | MisrSat-2
Long March 2C | MisrSat-2

Agency: N/A

Status: Launch Successful

Launch date: Dec. 4, 2023, 4:10 a.m. UTC

Rocket: Long March 2

Launch pad: Launch Area 4 (SLS-2 / 603)

Location: Jiuquan Satellite Launch Center, People's Republic of China

...

Latest news about this satellite

There are no fresh news available about this satellite. Check back as we update our databases every day.


Newsletter sign-up

Weekly statistics, charts and insights to help you stay on top of the space industry.